Regional Weather Roundup
Issued by NWS Albany, NY

Home | Current Version | Previous Version | Text Only | Print | Product List | Glossary On
Versions: 1 2 3 4 5 6 7 8 9 10 11 12 13 14 15 16 17 18 19 20 21 22 23 24 25 26 27 28 29 30 31 32 33 34 35 36 37 38 39 40 41 42 43 44 45 46 47 48 49 50
000
ASUS41 KALY 210610
RWRALY

NEW YORK STATE HOURLY WEATHER ROUNDUP
NATIONAL WEATHER SERVICE ALBANY NY
200 AM EDT TUE OCT 21 2014

NOTE: "FAIR" INDICATES FEW OR NO CLOUDS BELOW 12,000 FEET WITH NO
SIGNIFICANT WEATHER AND/OR NO OBSTRUCTIONS TO VISIBILITY.

NYZ032-033-038>043-046>054-057>066-NYZ062>081-210700-
EAST


CITY           SKY/WX    TMP DP  RH WIND       PRES   REMARKS
ALBANY         LGT RAIN  52  40  63 S10       29.92F
GLENS FALLS    CLOUDY    45  40  82 CALM      29.92F
POUGHKEEPSIE   CLOUDY    48  42  80 SE3       29.92F
NEWBURGH       MOCLDY    54  43  66 SE6       29.94F
MONTGOMERY     CLOUDY    45  41  86 N3        29.92F
WHITE PLAINS   CLOUDY    49  44  83 CALM      29.94F
ISLIP          PTCLDY    55  46  71 CALM      29.94F
NEW YORK CITY  CLOUDY    57  44  62 S3        29.94F
CENTRAL PARK   CLOUDY    58  43  57 MISG      29.96F
$$

NYZ005>009-017-018-044>046-055-056-210700-
CENTRAL


CITY           SKY/WX    TMP DP  RH WIND       PRES   REMARKS
FULTON         LGT RAIN  48  46  93 E3        29.85F
SYRACUSE       LGT RAIN  50  46  87 S7        29.86F
ROME           CLOUDY    47  44  90 CALM      29.89F
ELMIRA         CLOUDY    47  46  97 CALM      29.85F
BINGHAMTON     CLOUDY    49  39  68 S5        29.86F
MONTICELLO     CLOUDY    45  41  87 SE5       29.92F
$$

NYZ026>034-041>043-210700-
NORTH


CITY           SKY/WX    TMP DP  RH WIND       PRES   REMARKS
WATERTOWN      LGT RAIN  51  43  74 S7        29.84F
FORT DRUM      NOT AVBL
MASSENA        CLOUDY    44  42  93 NE7       29.90F
SARANAC LAKE   CLOUDY    40  38  93 CALM      29.87S
PLATTSBURGH    CLOUDY    43  40  89 CALM      29.92S
$$

NYZ001>004-010>016-019>021-210700-
WEST


CITY           SKY/WX    TMP DP  RH WIND       PRES   REMARKS
NIAGARA FALLS  HVY RAIN  51  49  92 S6        29.77F FOG
BUFFALO        LGT RAIN  50  47  89 S10       29.78F
DUNKIRK        LGT RAIN  50  48  93 S8        29.79F
JAMESTOWN      CLOUDY    46  45  93 S6        29.80F
WELLSVILLE     LGT RAIN  46  43  89 S8        29.83F
ROCHESTER      CLOUDY    51  47  86 S8        29.80F
PENN YAN       LGT RAIN  49  45  86 S6        29.84F
$$

             KEY
       WCI = WIND CHILL INDEX
       VSB = VISIBILITY
       HX  = HEAT INDEX
$$


USA.gov is the U.S. government's official web portal to all federal, state and local government web resources and services.